Elizabethton, TN

1:15 PM EDT on March 23, 2017 (GMT -0400)
Elizabethton

Weather History for K0A9 - January, 2013

Change the Weather History Date:

Wednesday, January 30, 2013

  Actual Average (KTRI) Record (KTRI)
Temperature  
Mean Temperature 58 °F -  
Max Temperature 71 °F 46 °F 72 °F (2002)
Min Temperature 44 °F 26 °F -9 °F (1966)
Degree Days  
Heating Degree Days 8    
Growing Degree Days 8 (Base 50)    
Moisture  
Dew Point 51 °F    
Average Humidity 81    
Maximum Humidity 100    
Minimum Humidity 57    
Precipitation  
Precipitation 0.00 in - - ()
Sea Level Pressure  
Sea Level Pressure 29.67 in    
Wind  
Wind Speed 5 mph (SW)    
Max Wind Speed 22 mph    
Max Gust Speed 36 mph    
Visibility 8 miles    
Events Rain    
Averages and records for this station are not official NWS values.
T = Trace of Precipitation, MM = Missing Value Source: NWS Daily Summary

Daily Weather History Graph

Daily Weather History Graph

Search for Another Location

Airport or City:

Trip Planner

Search our weather history database for the weather conditions in past years. The results will help you decide how hot, cold, wet, or windy it might be!

Date:

Astronomy

Jan. 30, 2013 Rise Set
Actual Time 7:31 AM EST 5:53 PM EST
Civil Twilight 7:04 AM EST 6:20 PM EST
Nautical Twilight 6:33 AM EST 6:51 PM EST
Astronomical Twilight 6:02 AM EST 7:21 PM EST
Moon 9:41 PM EST (1/30) 9:06 AM EST (1/30)
Length of Visible Light 11h 16m
Length of Day
10h 21m
Waning Gibbous, 88% of the Moon is Illuminated
Jan 30
Waning Gibbous
Feb 3
Last Quarter
Feb 10
New
Feb 17
First Quarter
Feb 25
Full

Hourly Weather History & Observations

Time (EST) Temp. Windchill Dew Point Humidity Pressure Visibility Wind Dir Wind Speed Gust Speed Precip Events Conditions
12:55 AM 53.6 °F - 50.0 °F 88% 29.91 in 10.0 mi NE 3.5 mph - N/A   Overcast
1:15 AM 53.6 °F - 51.8 °F 94% 29.90 in 10.0 mi NE 3.5 mph - N/A   Overcast
1:35 AM 55.4 °F - 51.8 °F 88% 29.89 in 10.0 mi Calm Calm - N/A   Scattered Clouds
1:55 AM 60.8 °F - 53.6 °F 77% 29.89 in 10.0 mi Calm Calm - N/A   Mostly Cloudy
2:15 AM 64.4 °F - 53.6 °F 68% 29.89 in 10.0 mi South 6.9 mph - N/A   Mostly Cloudy
2:35 AM 64.4 °F - 53.6 °F 68% 29.87 in 10.0 mi Calm Calm - N/A   Mostly Cloudy
2:55 AM 64.4 °F - 53.6 °F 68% 29.85 in 10.0 mi Variable 4.6 mph - N/A   Mostly Cloudy
3:15 AM 64.4 °F - 53.6 °F 68% 29.84 in 10.0 mi Variable 3.5 mph - N/A   Scattered Clouds
3:35 AM 62.6 °F - 53.6 °F 72% 29.84 in 10.0 mi Variable 3.5 mph - N/A   Mostly Cloudy
3:55 AM 64.4 °F - 51.8 °F 64% 29.83 in 10.0 mi Calm Calm - N/A   Mostly Cloudy
4:15 AM 62.6 °F - 51.8 °F 68% 29.82 in 10.0 mi South 8.1 mph - N/A   Partly Cloudy
4:35 AM 64.4 °F - 51.8 °F 64% 29.81 in 10.0 mi Variable 3.5 mph - N/A   Scattered Clouds
4:55 AM 64.4 °F - 51.8 °F 64% 29.80 in 10.0 mi SSW 9.2 mph - N/A   Mostly Cloudy
5:15 AM 64.4 °F - 51.8 °F 64% 29.79 in 10.0 mi South 9.2 mph - N/A   Mostly Cloudy
5:35 AM 66.2 °F - 51.8 °F 60% 29.79 in 10.0 mi SW 11.5 mph - N/A   Mostly Cloudy
5:55 AM 66.2 °F - 51.8 °F 60% 29.78 in 10.0 mi SSW 10.4 mph - N/A   Mostly Cloudy
6:15 AM 66.2 °F - 51.8 °F 60% 29.78 in 10.0 mi SW 9.2 mph - N/A   Mostly Cloudy
6:35 AM 66.2 °F - 51.8 °F 60% 29.76 in 10.0 mi Variable 6.9 mph - N/A   Mostly Cloudy
6:55 AM 66.2 °F - 51.8 °F 60% 29.74 in 10.0 mi Variable 4.6 mph - N/A   Scattered Clouds
7:15 AM 66.2 °F - 53.6 °F 64% 29.74 in 10.0 mi SSE 9.2 mph - N/A   Scattered Clouds
7:35 AM 66.2 °F - 53.6 °F 64% 29.73 in 10.0 mi Calm Calm - N/A   Mostly Cloudy
7:55 AM 66.2 °F - 53.6 °F 64% 29.73 in 10.0 mi South 16.1 mph 25.3 mph N/A   Light Drizzle
8:15 AM 64.4 °F - 55.4 °F 73% 29.72 in 10.0 mi SSW 8.1 mph 23.0 mph N/A   Overcast
8:35 AM 66.2 °F - 53.6 °F 64% 29.73 in 10.0 mi Variable 6.9 mph - N/A   Mostly Cloudy
8:55 AM 66.2 °F - 53.6 °F 64% 29.72 in 10.0 mi SW 10.4 mph 20.7 mph N/A   Mostly Cloudy
9:15 AM 66.2 °F - 53.6 °F 64% 29.72 in 10.0 mi Variable 4.6 mph - N/A   Overcast
9:35 AM 68.0 °F - 53.6 °F 60% 29.71 in 10.0 mi WSW 11.5 mph - N/A   Mostly Cloudy
9:55 AM 66.2 °F - 55.4 °F 68% 29.70 in 10.0 mi WSW 8.1 mph - N/A   Overcast
10:15 AM 66.2 °F - 55.4 °F 68% 29.69 in 10.0 mi Variable 4.6 mph - N/A Rain Light Rain
10:35 AM 68.0 °F - 53.6 °F 60% 29.67 in 10.0 mi Variable 6.9 mph - N/A   Mostly Cloudy
10:55 AM 66.2 °F - 55.4 °F 68% 29.67 in 6.0 mi SW 12.7 mph - N/A Rain Light Rain
11:15 AM 66.2 °F - 55.4 °F 68% 29.66 in 10.0 mi SW 9.2 mph - N/A   Overcast
11:35 AM 69.8 °F - 55.4 °F 60% 29.65 in 10.0 mi SW 11.5 mph - N/A   Mostly Cloudy
11:55 AM 71.6 °F - 55.4 °F 57% 29.65 in 10.0 mi SSW 10.4 mph - N/A   Mostly Cloudy
12:15 PM 60.8 °F - 53.6 °F 77% 29.67 in 10.0 mi NW 21.9 mph 35.7 mph N/A Rain Light Rain
12:35 PM 55.4 °F - 53.6 °F 94% 29.67 in 5.0 mi WNW 11.5 mph - N/A Rain Heavy Rain
12:55 PM 55.4 °F - 53.6 °F 94% 29.66 in 5.0 mi Variable 4.6 mph - N/A Rain Light Rain
1:15 PM 55.4 °F - 53.6 °F 94% 29.65 in 6.0 mi Calm Calm - N/A Rain Light Rain
1:35 PM 55.4 °F - 53.6 °F 94% 29.62 in 4.0 mi Calm Calm - N/A Rain Heavy Rain
1:55 PM 55.4 °F - 53.6 °F 94% 29.60 in 5.0 mi Calm Calm - N/A Rain Rain
2:15 PM 55.4 °F - 53.6 °F 94% 29.63 in 1.2 mi West 4.6 mph - N/A Rain Heavy Rain
2:35 PM 53.6 °F - 53.6 °F 100% 29.64 in 1.8 mi WSW 3.5 mph - N/A Rain Heavy Rain
2:55 PM 53.6 °F - 53.6 °F 100% 29.63 in 3.0 mi Calm Calm - N/A Rain Heavy Rain
3:15 PM 53.6 °F - 53.6 °F 100% 29.60 in 4.0 mi ENE 3.5 mph - N/A Rain Heavy Rain
3:35 PM 53.6 °F - 53.6 °F 100% 29.60 in 4.0 mi Calm Calm - N/A Rain Rain
3:55 PM 53.6 °F - 53.6 °F 100% 29.58 in 9.0 mi ENE 3.5 mph - N/A Rain Heavy Rain
4:15 PM 53.6 °F - 53.6 °F 100% 29.57 in 6.0 mi NE 4.6 mph - N/A Rain Heavy Rain
4:35 PM 53.6 °F - 53.6 °F 100% 29.54 in 6.0 mi ENE 5.8 mph - N/A Rain Rain
4:55 PM 53.6 °F - 53.6 °F 100% 29.53 in 6.0 mi East 4.6 mph - N/A Rain Rain
5:15 PM 53.6 °F - 53.6 °F 100% 29.51 in 5.0 mi ENE 5.8 mph - N/A Rain Heavy Rain
5:35 PM 53.6 °F - 53.6 °F 100% 29.50 in 8.0 mi ENE 4.6 mph - N/A Rain Heavy Rain
5:55 PM 53.6 °F - 53.6 °F 100% 29.48 in 5.0 mi East 4.6 mph - N/A Rain Heavy Rain
6:15 PM 53.6 °F - 53.6 °F 100% 29.50 in 6.0 mi West 12.7 mph - N/A Rain Rain
6:35 PM 53.6 °F - 53.6 °F 100% 29.52 in 4.0 mi WSW 13.8 mph - N/A Rain Heavy Rain
6:55 PM 48.2 °F - 46.4 °F 93% 29.57 in 5.0 mi WSW 11.5 mph - N/A Rain Rain
7:15 PM 46.4 °F 39.8 °F 44.6 °F 93% 29.59 in 7.0 mi West 16.1 mph - N/A Rain Rain
7:35 PM 46.4 °F 40.1 °F 44.6 °F 93% 29.59 in 6.0 mi West 15.0 mph - N/A Rain Rain
7:55 PM 44.6 °F 42.2 °F 42.8 °F 93% 29.58 in 6.0 mi Variable 4.6 mph - N/A Rain Rain
8:15 PM 44.6 °F 42.2 °F 42.8 °F 93% 29.58 in 5.0 mi WNW 4.6 mph - N/A Rain Heavy Rain
8:35 PM 44.6 °F - 42.8 °F 93% 29.55 in 5.0 mi Calm Calm - N/A Rain Rain
8:55 PM 44.6 °F - 42.8 °F 93% 29.57 in 8.0 mi Calm Calm - N/A Rain Light Rain
9:15 PM 44.6 °F 43.1 °F 42.8 °F 93% 29.55 in 10.0 mi ENE 3.5 mph - N/A   Overcast
9:35 PM 44.6 °F - 42.8 °F 93% 29.56 in 10.0 mi Calm Calm - N/A Rain Light Rain
9:55 PM 44.6 °F - 42.8 °F 93% 29.53 in 10.0 mi Calm Calm - N/A Rain Light Rain
10:15 PM 44.6 °F 43.1 °F 42.8 °F 93% 29.50 in 10.0 mi Variable 3.5 mph - N/A   Light Drizzle
10:35 PM 44.6 °F 42.2 °F 41.0 °F 87% 29.51 in 10.0 mi WNW 4.6 mph - N/A Rain Light Rain
10:55 PM 44.6 °F 43.1 °F 39.2 °F 81% 29.51 in 10.0 mi West 3.5 mph - N/A   Overcast
11:15 PM 44.6 °F 41.4 °F 39.2 °F 81% 29.50 in 10.0 mi West 5.8 mph - N/A   Overcast
11:35 PM 46.4 °F 40.7 °F 39.2 °F 76% 29.51 in 10.0 mi West 12.7 mph - N/A   Overcast
11:55 PM 44.6 °F 37.2 °F 37.4 °F 76% 29.52 in 8.0 mi West 17.3 mph 31.1 mph N/A Rain Light Rain